Iowa City, IA

4:36 AM CDT on October 24, 2017 (GMT -0500)
Iowa City Municipal

Weather History for KIOW - May, 2013

Change the Weather History Date:

Thursday, May 9, 2013

  Actual Average Record
Temperature  
Mean Temperature 64 °F 59 °F  
Max Temperature 68 °F 69 °F 90 °F (1963)
Min Temperature 59 °F 48 °F 31 °F (1966)
Degree Days  
Heating Degree Days 1 7  
Month to date heating degree days 67 74  
Since 1 July heating degree days 6330 6267  
Cooling Degree Days 0 1  
Month to date cooling degree days 0 6  
Year to date cooling degree days 10 10  
Growing Degree Days 13 (Base 50)    
Moisture  
Dew Point 59 °F    
Average Humidity 86    
Maximum Humidity 93    
Minimum Humidity 78    
Precipitation  
Precipitation 0.20 in 0.13 in 1.56 in (2016)
Month to date precipitation 3.87 1.26  
Year to date precipitation 17.20 9.14  
Sea Level Pressure  
Sea Level Pressure 29.88 in    
Wind  
Wind Speed 5 mph (SSW)    
Max Wind Speed 12 mph    
Max Gust Speed 18 mph    
Visibility 10 miles    
Events Rain    
T = Trace of Precipitation, MM = Missing Value Source: NWS Daily Summary

Daily Weather History Graph

Daily Weather History Graph

Search for Another Location

Airport or City:

Trip Planner

Search our weather history database for the weather conditions in past years. The results will help you decide how hot, cold, wet, or windy it might be!

Date:

Astronomy

May. 09, 2013 Rise Set
Actual Time 5:52 AM CDT 8:13 PM CDT
Civil Twilight 5:21 AM CDT 8:44 PM CDT
Nautical Twilight 4:43 AM CDT 9:22 PM CDT
Astronomical Twilight 4:00 AM CDT 10:05 PM CDT
Moon 5:37 AM CDT (5/9) 8:08 PM CDT (5/9)
Length of Visible Light 15h 22m
Length of Day
14h 20m
Waning Crescent, 0% of the Moon is Illuminated
May 9
Waning Crescent
May 9
New
May 17
First Quarter
May 24
Full
May 31
Last Quarter

Hourly Weather History & Observations

Time (CDT) Temp. Dew Point Humidity Pressure Visibility Wind Dir Wind Speed Gust Speed Precip Events Conditions
12:52 AM 60.1 °F 57.9 °F 93% 29.94 in 10.0 mi SE 5.8 mph - N/A   Overcast
1:52 AM 61.0 °F 57.9 °F 90% 29.95 in 10.0 mi Calm Calm - 0.00 in Rain Light Rain
2:52 AM 61.0 °F 57.9 °F 90% 29.93 in 10.0 mi SE 3.5 mph - 0.01 in   Overcast
3:52 AM 62.1 °F 57.0 °F 84% 29.91 in 10.0 mi ESE 4.6 mph - N/A   Overcast
4:52 AM 61.0 °F 57.0 °F 87% 29.93 in 10.0 mi South 4.6 mph - 0.06 in Rain Light Rain
5:52 AM 60.1 °F 57.0 °F 90% 29.93 in 10.0 mi North - - 0.01 in   Mostly Cloudy
6:28 AM 60.8 °F 57.2 °F 88% 29.93 in 8.0 mi North - - 0.01 in Rain Light Rain
6:52 AM 60.1 °F 57.9 °F 93% 29.92 in 8.0 mi North - - 0.02 in Rain Light Rain
7:52 AM 61.0 °F 59.0 °F 93% 29.92 in 10.0 mi Calm Calm - 0.03 in   Overcast
8:52 AM 63.0 °F 59.0 °F 87% 29.91 in 10.0 mi ENE 3.5 mph - N/A   Partly Cloudy
9:52 AM 64.0 °F 60.1 °F 87% 29.91 in 10.0 mi SE 6.9 mph - 0.00 in   Overcast
10:43 AM 62.6 °F 60.8 °F 94% 29.93 in 10.0 mi SSE 5.8 mph - 0.00 in   Overcast
10:52 AM 63.0 °F 60.1 °F 90% 29.93 in 10.0 mi SSE 5.8 mph - 0.00 in   Overcast
11:52 AM 66.0 °F 61.0 °F 84% 29.91 in 10.0 mi SSE 6.9 mph - 0.01 in Rain Light Rain
1:52 PM 66.9 °F 61.0 °F 81% 29.86 in 10.0 mi SE 4.6 mph - 0.00 in Rain Light Rain
2:50 PM 66.2 °F 60.8 °F 83% 29.86 in 10.0 mi South 5.8 mph - 0.00 in   Overcast
3:44 PM 66.2 °F 60.8 °F 83% 29.83 in 10.0 mi Calm Calm - 0.03 in   Overcast
3:52 PM 66.9 °F 61.0 °F 81% 29.83 in 10.0 mi WSW 3.5 mph - 0.03 in   Overcast
4:04 PM 66.2 °F 60.8 °F 83% 29.83 in 10.0 mi West 4.6 mph - N/A   Overcast
4:52 PM 64.9 °F 62.1 °F 90% 29.82 in 10.0 mi WNW 5.8 mph - 0.01 in Rain Light Rain
5:52 PM 66.0 °F 60.1 °F 81% 29.81 in 10.0 mi WNW 8.1 mph - 0.01 in   Overcast
7:52 PM 64.0 °F 57.9 °F 80% 29.81 in 10.0 mi NW 4.6 mph - N/A   Scattered Clouds
9:52 PM 62.1 °F 59.0 °F 90% 29.83 in 10.0 mi West 5.8 mph - N/A   Overcast
10:52 PM 61.0 °F 57.9 °F 90% 29.83 in 10.0 mi WNW 8.1 mph - N/A   Scattered Clouds
11:50 PM 59.0 °F 57.2 °F 94% 29.83 in 10.0 mi West 8.1 mph - N/A   Mostly Cloudy